Location: Holyhead Bay
(53.3667°N, 4.6667°W)
Time: 19:52:34
(UTC+00:00)

Cosmos 1606 - Pass Details

Date: 24 November 2020
Orbit: 502 x 528 km, 82.5° (Epoch: 17 January)

Event Time Altitude Azimuth Distance (km) Brightness Sun altitude
Rises 17:01:46 0° 145° (SE) 2,659 6.2 -7.5°
Reaches altitude 10° 17:04:31 10° 124° (SE) 1,776 5.1 -7.9°
Maximum altitude 17:06:59 16° 85° (E) 1,421 4.3 -8.2°
Drops below altitude 10° 17:09:28 10° 45° (NE) 1,784 4.8 -8.6°
Enters shadow 17:09:38 - 43° (NE) 1,832 4.9 -8.6°
